[[{"header":{"parameterUnit":"m.s-1","parameterCategory":1,"la1":30.2991,"la2":30.254,"lo1":-89.0895,"lo2":-89.0444,"dy":0.0017,"dx":0.0017,"nx":28,"ny":28,"refTime":"2025-01-05T09:00:00:Z","depth":0,"parameterNumber":2,"parameterNumberName":"U-component_of_WINDS"},"data":[0,0,0,0,0,0,0,0,0,0,0,0,0,0,0,0,0,0,0,0,0,0,0,0,0,0,0,0,0,0,0,0,0,0,0,0,0,0,0,0,0,0,0,0,0,0,0,0,0,0,0,0,0,0,0,0,0,0,1.5656,1.5656,0,1.5651,1.5651,1.5651,1.5647,1.5647,1.5647,1.5647,1.564,1.564,1.564,0,0,0,0,0,0,0,0,0,0,0,0,0,1.566,1.566,1.5656,1.5656,1.5656,1.5651,1.5651,1.5651,1.5647,1.5647,1.5647,1.5647,1.564,1.564,1.564,0,0,0,0,0,0,0,0,0,0,0,0,0,1.5657,1.566,1.5656,1.5653,1.5653,1.5651,1.5651,1.5651,1.5647,1.5647,1.5647,1.5647,1.564,1.564,1.564,1.564,0,0,1.5639,1.5639,0,0,0,0,0,0,0,0,1.5657,1.5657,1.5654,1.5653,1.5653,1.565,1.565,1.5647,1.5647,1.5649,1.5647,1.5647,1.5643,1.5643,1.5642,1.5639,1.5639,1.5639,1.5639,1.5639,1.5639,0,0,0,0,0,0,0,1.5657,1.5657,1.5654,1.5654,1.5653,1.5652,1.5651,1.565,1.5646,1.5649,1.5649,1.5648,1.5643,1.5642,1.5642,1.5639,1.5639,1.5639,1.5639,1.5639,1.5638,1.5638,0,0,0,0,0,0,1.5658,1.5657,1.5654,1.5654,1.5655,1.5652,1.5651,1.5651,1.5647,1.5646,1.5648,1.5648,1.5642,1.5642,1.5641,1.5642,1.5639,1.5639,1.5638,1.5638,1.5638,1.5638,0,0,0,0,0,0,1.5658,1.5658,1.5654,1.5655,1.5655,1.5652,1.5651,1.5651,1.565,1.5646,1.5645,1.5648,1.5642,1.5642,1.5641,1.5641,1.5638,1.5638,1.5637,1.5638,1.5638,1.5642,0,0,0,0,0,0,1.5658,1.5658,1.5658,1.5656,1.5655,1.5654,1.5651,1.5651,1.565,1.565,1.5646,1.5645,1.5642,1.5641,1.564,1.5641,1.5638,1.5637,1.5638,1.5638,1.5642,1.5643,1.5643,0,0,0,0,0,1.5658,1.5659,1.5658,1.5658,1.5655,1.5654,1.5654,1.5651,1.565,1.565,1.5648,1.5645,1.5642,1.5641,1.564,1.5641,1.5637,1.5637,1.5638,1.5642,1.5643,1.5643,0,0,0,0,0,0,1.566,1.5658,1.5657,1.5657,1.5656,1.5653,1.5653,1.5652,1.565,1.565,1.5646,1.5645,1.5645,1.5643,1.5642,1.5641,1.5639,1.5639,1.5643,1.5643,1.5644,1.5644,1.5638,0,0,0,0,0,1.5661,1.5661,1.5659,1.5659,1.5658,1.5656,1.5655,1.5654,1.5652,1.5651,1.5649,1.5647,1.5645,1.5644,1.5643,1.5642,1.5641,1.5642,1.5643,1.5643,1.5643,1.5644,1.5644,1.5639,1.5639,1.5639,0,0,1.5662,1.5661,1.566,1.5659,1.5658,1.5658,1.5655,1.5655,1.5654,1.5651,1.565,1.5648,1.5646,1.5645,1.5645,1.5644,1.5645,1.5644,1.5644,1.5644,1.5644,1.5644,1.5645,1.5639,1.5639,1.5639,0,0,1.5663,1.5662,1.5662,1.5662,1.5661,1.5659,1.5659,1.5657,1.5657,1.5656,1.5654,1.5653,1.565,1.5649,1.5648,1.5651,1.5648,1.565,1.5652,1.5653,1.5653,1.5653,1.5654,1.5655,1.565,1.565,1.565,0,1.5663,1.5663,1.5662,1.5662,1.5662,1.566,1.566,1.566,1.5658,1.5657,1.5656,1.5654,1.5652,1.5651,1.5652,1.5652,1.5651,1.565,1.5653,1.5654,1.5654,1.5655,1.5655,1.565,1.565,1.565,1.565,0,1.5665,1.5665,1.5665,1.5664,1.5664,1.5664,1.5663,1.5663,1.5662,1.5661,1.566,1.5659,1.5657,1.5657,1.5655,1.5656,1.5656,1.5654,1.5652,1.5655,1.5655,1.5656,1.5651,1.5651,1.5651,1.5651,0,0,1.5665,1.5666,1.5666,1.5666,1.5665,1.5665,1.5665,1.5665,1.5665,1.5664,1.5664,1.5663,1.5662,1.5661,1.5659,1.5659,1.5662,1.5658,1.5658,1.5659,1.5664,1.5664,1.5665,1.5661,1.5661,1.5661,1.5664,0,1.5666,1.5667,1.5667,1.5667,1.5668,1.5667,1.5667,1.5667,1.5666,1.5666,1.5665,1.5665,1.5663,1.5663,1.5663,1.5662,1.5663,1.5662,1.566,1.566,1.5661,1.5665,1.5666,1.5668,1.5664,1.5664,1.5664,0,1.5667,1.5667,1.5668,1.5669,1.5669,1.5669,1.5669,1.5669,1.5669,1.5669,1.5668,1.5667,1.5667,1.5666,1.5666,1.5665,1.5665,1.5665,1.5665,1.5664,1.5662,1.5664,1.5669,1.5669,1.5665,1.5665,1.5665,0,1.5667,1.5668,1.5669,1.5669,1.567,1.567,1.567,1.567,1.567,1.567,1.567,1.567,1.567,1.567,1.5668,1.5667,1.5669,1.5667,1.5668,1.5668,1.5668,1.5668,1.5672,1.5669,1.5669,1.5669,1.5669,0,1.5668,1.5668,1.5669,1.567,1.5671,1.5671,1.5672,1.5672,1.5672,1.5672,1.5672,1.5672,1.5671,1.5671,1.567,1.5671,1.567,1.567,1.5669,1.567,1.567,1.5669,1.5668,1.5669,1.5669,1.5669,1.5669,0,1.5667,1.5668,1.5669,1.5671,1.5671,1.5672,1.5672,1.5673,1.5673,1.5674,1.5674,1.5673,1.5674,1.5673,1.5673,1.5673,1.5673,1.5673,1.5674,1.5673,1.5674,1.5674,1.5678,1.5678,1.5675,1.5675,1.5675,0,1.5667,1.5668,1.567,1.5671,1.5671,1.5672,1.5673,1.5673,1.5674,1.5674,1.5675,1.5676,1.5676,1.5677,1.5676,1.5676,1.5676,1.5677,1.5675,1.5676,1.5675,1.5675,1.5675,1.5677,1.5677,1.5677,1.5677,0,1.5667,1.5668,1.5669,1.5671,1.5672,1.5673,1.5674,1.5674,1.5675,1.5676,1.5677,1.5677,1.5678,1.5679,1.5679,1.5679,1.5678,1.5678,1.5678,1.5678,1.5678,1.5678,1.5674,1.5677,1.5677,1.5677,1.5677,1.5677,1.5667,1.5668,1.567,1.5671,1.5672,1.5674,1.5675,1.5675,1.5676,1.5678,1.5678,1.5679,1.568,1.5681,1.5681,1.5681,1.5681,1.5681,1.5681,1.5681,1.5681,1.5679,1.5682,1.5682,1.5682,1.5681,1.5681,0,1.5667,1.5668,1.567,1.5672,1.5673,1.5674,1.5675,1.5676,1.5677,1.5679,1.568,1.5681,1.5682,1.5683,1.5683,1.5684,1.5684,1.5684,1.5684,1.5684,1.5682,1.5681,1.5685,1.5685,1.5685,1.5685,1.5685,1.5685,1.5667,1.5668,1.567,1.5672,1.5674,1.5675,1.5676,1.5677,1.5679,1.5681,1.5682,1.5682,1.5683,1.5685,1.5686,1.5686,1.5686,1.5687,1.5686,1.5684,1.5684,1.5683,1.5683,1.5687,1.5687,1.5689,1.5689,1.5689]},{"header":{"parameterUnit":"m.s-1","parameterCategory":1,"la1":30.2991,"la2":30.254,"lo1":-89.0895,"lo2":-89.0444,"dy":0.0017,"dx":0.0017,"nx":28,"ny":28,"refTime":"2025-01-05T09:00:00:Z","depth":0,"parameterNumber":3,"parameterNumberName":"V-component_of_WINDS"},"data":[0,0,0,0,0,0,0,0,0,0,0,0,0,0,0,0,0,0,0,0,0,0,0,0,0,0,0,0,0,0,0,0,0,0,0,0,0,0,0,0,0,0,0,0,0,0,0,0,0,0,0,0,0,0,0,0,0,0,-8.1053,-8.1055,0,-8.1245,-8.1248,-8.125,-8.1154,-8.1149,-8.1144,-8.1139,-8.133,-8.134,-8.1349,0,0,0,0,0,0,0,0,0,0,0,0,0,-8.0597,-8.0606,-8.1053,-8.1055,-8.1058,-8.1245,-8.1248,-8.125,-8.1155,-8.1149,-8.1143,-8.1137,-8.1327,-8.1339,-8.135,0,0,0,0,0,0,0,0,0,0,0,0,0,-8.0793,-8.0609,-8.1052,-8.1033,-8.1033,-8.1245,-8.1248,-8.1251,-8.1156,-8.1149,-8.1141,-8.1134,-8.1323,-8.1337,-8.1352,-8.1592,0,0,-8.1396,-8.1403,0,0,0,0,0,0,0,0,-8.0782,-8.081,-8.1033,-8.1035,-8.1035,-8.1168,-8.1157,-8.1365,-8.1158,-8.1109,-8.1139,-8.1131,-8.1282,-8.1299,-8.1352,-8.1601,-8.1609,-8.1398,-8.1407,-8.1413,-8.1417,0,0,0,0,0,0,0,-8.0768,-8.0801,-8.1129,-8.1037,-8.1038,-8.1013,-8.1032,-8.1196,-8.1235,-8.1113,-8.1107,-8.1131,-8.1281,-8.1338,-8.1356,-8.1612,-8.1397,-8.141,-8.1419,-8.1425,-8.2066,-8.2074,0,0,0,0,0,0,-8.0756,-8.079,-8.1123,-8.1134,-8.0888,-8.1027,-8.1049,-8.1133,-8.1233,-8.1241,-8.1137,-8.1126,-8.1317,-8.1339,-8.1362,-8.165,-8.1413,-8.1426,-8.1435,-8.2058,-8.2068,-8.2077,0,0,0,0,0,0,-8.0747,-8.0787,-8.1115,-8.0961,-8.1001,-8.1043,-8.1138,-8.1141,-8.1198,-8.1252,-8.1257,-8.1189,-8.1312,-8.1341,-8.1536,-8.1655,-8.1433,-8.1446,-8.2048,-8.2061,-8.2073,-8.2227,0,0,0,0,0,0,-8.0734,-8.0784,-8.0877,-8.0964,-8.1009,-8.1288,-8.1145,-8.115,-8.1224,-8.1211,-8.1301,-8.1309,-8.1308,-8.1515,-8.155,-8.1671,-8.1458,-8.2038,-8.2054,-8.2069,-8.2211,-8.2243,-8.227,0,0,0,0,0,-8.0719,-8.0912,-8.0883,-8.0923,-8.1127,-8.1295,-8.1321,-8.1318,-8.1234,-8.1327,-8.1361,-8.1306,-8.1636,-8.1535,-8.1575,-8.1702,-8.203,-8.2049,-8.2068,-8.2198,-8.2237,-8.227,0,0,0,0,0,0,-8.0836,-8.0923,-8.0891,-8.1119,-8.1201,-8.1279,-8.1396,-8.1359,-8.1464,-8.1447,-8.1437,-8.1458,-8.166,-8.17,-8.1586,-8.1939,-8.182,-8.1847,-8.1906,-8.1943,-8.1972,-8.1958,-8.147,0,0,0,0,0,-8.0889,-8.102,-8.1088,-8.1282,-8.1325,-8.1354,-8.1427,-8.1417,-8.1501,-8.1534,-8.1583,-8.1664,-8.1786,-8.1866,-8.1981,-8.2216,-8.2234,-8.2323,-8.2352,-8.2376,-8.24,-8.2527,-8.2567,-8.2138,-8.2138,-8.2138,0,0,-8.0998,-8.1062,-8.1145,-8.1307,-8.1369,-8.1504,-8.1383,-8.153,-8.163,-8.1556,-8.1743,-8.1782,-8.1871,-8.2088,-8.2185,-8.2127,-8.2523,-8.24,-8.2419,-8.243,-8.2551,-8.2591,-8.2627,-8.2151,-8.2149,-8.2147,0,0,-8.1267,-8.1329,-8.1497,-8.1563,-8.166,-8.1678,-8.1718,-8.1803,-8.1826,-8.2014,-8.1962,-8.2078,-8.2289,-8.2355,-8.2416,-8.2711,-8.2664,-8.2748,-8.2902,-8.3026,-8.306,-8.309,-8.3195,-8.3233,-8.2772,-8.2772,-8.2773,0,-8.1391,-8.1594,-8.1588,-8.1741,-8.1813,-8.1754,-8.1924,-8.1987,-8.2116,-8.2166,-8.21,-8.2363,-8.2419,-8.265,-8.2722,-8.2774,-8.2819,-8.2738,-8.3056,-8.3086,-8.3114,-8.3214,-8.3254,-8.2782,-8.2781,-8.278,-8.2779,0,-8.1741,-8.1882,-8.2006,-8.2135,-8.2221,-8.2381,-8.2399,-8.2486,-8.2469,-8.2494,-8.2686,-8.2751,-8.2879,-8.2933,-8.2916,-8.3162,-8.3123,-8.3057,-8.2937,-8.3165,-8.3259,-8.3297,-8.2796,-8.2792,-8.2789,-8.2787,0,0,-8.2089,-8.2213,-8.2259,-8.2317,-8.2419,-8.2528,-8.2684,-8.2811,-8.2887,-8.2977,-8.3108,-8.3287,-8.3227,-8.3297,-8.3288,-8.3397,-8.3626,-8.3317,-8.3319,-8.3372,-8.39,-8.3949,-8.3994,-8.3595,-8.3603,-8.3608,-8.3892,0,-8.2366,-8.2643,-8.2643,-8.2898,-8.3029,-8.2975,-8.3111,-8.3188,-8.3215,-8.3328,-8.3356,-8.3484,-8.3395,-8.3437,-8.3542,-8.3576,-8.3732,-8.3555,-8.3716,-8.3721,-8.3696,-8.4043,-8.4096,-8.4361,-8.3929,-8.3935,-8.394,0,-8.2725,-8.283,-8.31,-8.3184,-8.3238,-8.3362,-8.3478,-8.3587,-8.3672,-8.3684,-8.3763,-8.3737,-8.3894,-8.377,-8.3987,-8.3867,-8.3932,-8.3959,-8.3969,-8.3984,-8.3845,-8.4068,-8.4445,-8.4485,-8.3997,-8.3993,-8.3989,0,-8.2953,-8.3161,-8.335,-8.34,-8.3503,-8.3591,-8.3637,-8.3715,-8.3792,-8.3893,-8.3942,-8.4059,-8.4123,-8.4214,-8.4219,-8.4128,-8.4438,-8.4314,-8.4451,-8.4452,-8.4519,-8.4515,-8.4913,-8.4561,-8.456,-8.456,-8.4559,0,-8.3262,-8.3429,-8.3454,-8.357,-8.3754,-8.3752,-8.3934,-8.3972,-8.4042,-8.4163,-8.4122,-8.4236,-8.4237,-8.4352,-8.4357,-8.4536,-8.4565,-8.4578,-8.4577,-8.4582,-8.4581,-8.4625,-8.4607,-8.457,-8.4568,-8.4566,-8.4564,0,-8.3549,-8.3572,-8.3773,-8.3855,-8.3879,-8.4012,-8.408,-8.4189,-8.4213,-8.4366,-8.4402,-8.4438,-8.4572,-8.4587,-8.4742,-8.4745,-8.4961,-8.494,-8.4933,-8.493,-8.5067,-8.5054,-8.5507,-8.5567,-8.5176,-8.5179,-8.5182,0,-8.3745,-8.3872,-8.3968,-8.4047,-8.4099,-8.4227,-8.4305,-8.4307,-8.439,-8.4497,-8.4593,-8.4724,-8.4828,-8.5045,-8.5083,-8.5202,-8.5184,-8.5334,-8.5201,-8.5202,-8.5186,-8.5179,-8.5192,-8.536,-8.5365,-8.5368,-8.5371,0,-8.4091,-8.4096,-8.4212,-8.4333,-8.4428,-8.4522,-8.4611,-8.4677,-8.4689,-8.4784,-8.4922,-8.5004,-8.5163,-8.5293,-8.541,-8.5454,-8.5416,-8.5413,-8.5451,-8.5457,-8.5448,-8.5456,-8.5004,-8.5402,-8.5399,-8.5397,-8.5395,-8.5394,-8.4338,-8.4449,-8.4534,-8.4665,-8.4732,-8.4816,-8.4923,-8.496,-8.5076,-8.5208,-8.5201,-8.5353,-8.5434,-8.5587,-8.5641,-8.5758,-8.5708,-8.5763,-8.5777,-8.5791,-8.5805,-8.543,-8.5779,-8.5778,-8.5778,-8.5777,-8.5776,0,-8.4682,-8.4735,-8.4855,-8.4981,-8.5084,-8.5039,-8.5135,-8.5223,-8.5358,-8.5438,-8.5543,-8.5701,-8.5826,-8.5875,-8.5998,-8.6082,-8.6067,-8.6114,-8.6108,-8.6119,-8.5843,-8.5798,-8.6125,-8.6125,-8.6125,-8.6124,-8.6124,-8.6124,-8.4874,-8.506,-8.5075,-8.5293,-8.5343,-8.5494,-8.5553,-8.5629,-8.5693,-8.5873,-8.5978,-8.601,-8.6077,-8.6204,-8.6317,-8.6327,-8.6374,-8.643,-8.6433,-8.6174,-8.6139,-8.6105,-8.6063,-8.644,-8.644,-8.67,-8.6702,-8.6704]}]]